Midland International Airport
KMAF : now visible

Airfield :











YOU CAN JOIN US ON...

 
LOGIN :

Register | Disclaimer

   EN    FR    IT 

 









Legend :    VFR   Marginal VFR   IFR   Intensive IFR   Very Intensive IFR
Visi :
Ceiling :
>= 8 km
>= 3000ft
5 to 8 km
1000 to 3000 ft
1500m to 5 km
500 to 1000 ft
800 to 1500m
200 to 500 ft
< 800m
< 200 ft
Symbols :   Thunderstorms  Fog  Heavy snow  Heavy precipitations  Wind > 20 kt






- Airport Elevation : 2871 ft
- IATA code : MAF


KMAF - Midland International

CURRENT METAR :
  • 190953Z AUTO 00000KT 10SM CLR 20/15 A3004 RMK AO2 SLP124 T02000150

EXPIRED METARs :
  • 190853Z AUTO 14004KT 10SM CLR 21/15 A3006 RMK AO2 SLP129 T02060150 58010
  • 190753Z AUTO 00000KT 10SM CLR 20/15 A3007 RMK AO2 SLP135 T02000150

TAF KMAF
Valid from the 19 at 06:00 until the 20 at 06:00 UTC


190532Z 1906/2006 17007KT P6SM SKC
KZFW FIR / North America



MET'MAP, your aeronautical weather chart ! - Copyright ORBIFLY December 2007 - Disclaimer

ORBIFLY MET'MAP TEAM :

Programming & Development : Alexandra Zaïnal
Concept & original design : Baudouin d'Aumeries
Assistance for programming : Marc-Olivier Méhu
Technical & hardware support : Manuel Goepfert

Contact : metmap@orbifly.com




SOURCES & CREDITS :

   NOAA       Earth
Advisory